Regional Weather Roundup
Issued by NWS

Home | Current Version | Previous Version | Graphics & Text | Print | Product List | Glossary On
Versions: 1 2 3 4 5 6 7 8 9 10 11 12 13 14 15 16 17 18 19 20 21 22 23 24 25 26 27 28 29 30 31 32 33 34 35 36 37 38 39 40 41 42 43 44 45 46 47 48 49 50
841
ASUS45 KCYS 011410
RWRWY

WYOMING REGIONAL WEATHER ROUNDUP
NATIONAL WEATHER SERVICE CHEYENNE WY
800 AM MDT SAT OCT 01 2016

NOTE:  "FAIR" INDICATES FEW OR NO CLOUDS BELOW 12,000 FEET
WITH NO SIGNIFICANT WEATHER AND/OR OBSTRUCTIONS TO VISIBILITY.

WYZ001-011500-
YELLOWSTONE NATIONAL PARK

CITY           SKY/WX    TMP DP  RH WIND       PRES   REMARKS
LK YELLOWSTONE   N/A     31  31 100 CALM      30.25S
W YELLOWSTONE  NOT AVBL

$$
WYZ002>013-054>058-071-098>099-011500-
NORTHERN WYOMING

CITY           SKY/WX    TMP DP  RH WIND       PRES   REMARKS
JACKSON        NOT AVBL
CODY           FAIR      55  41  58 CALM      30.08S
GREYBULL       FAIR      50  47  89 CALM      30.03S
WORLAND        FAIR      47  44  90 S5        30.04S
SHERIDAN       FAIR      50  46  86 CALM      30.02S
BUFFALO        FAIR      58  40  51 SW8       30.08S
GILLETTE       FAIR      51  48  89 CALM      30.05S
HULETT         FAIR      54  46  76 S6        30.07S
NEWCASTLE      FAIR      52  45  76 NW7       30.07S

$$
WYZ014>020-022>026-101>103-011500-
CENTRAL WYOMING

CITY           SKY/WX    TMP DP  RH WIND       PRES   REMARKS
BIG PINEY      CLOUDY    36  34  92 CALM      30.25R
PINEDALE       FAIR      34  32  93 NW5       30.26S WCI  30
DUBOIS         FAIR      39  34  81 W13       30.21S WCI  32
LANDER         FAIR      48  41  76 CALM      30.12S
RIVERTON       FAIR      49  43  80 W7        30.13S
CASPER         FAIR      54  43  66 SW10      30.13S
DOUGLAS        FAIR      44  41  89 NW3       30.12S

$$
WYZ021-027>030-104>119-011500-
SOUTHERN WYOMING

CITY           SKY/WX    TMP DP  RH WIND       PRES   REMARKS
EVANSTON       MOCLDY    47  37  68 SE6       30.22S
FORT BRIDGER   FAIR      47  38  71 CALM      30.26R
ROCK SPRINGS   FAIR      47  40  76 E5        30.22S
DIXON          FAIR      43  39  85 CALM      30.29R
RAWLINS        FAIR      44  40  85 CALM      30.24S
SARATOGA       FAIR      46  39  76 SE13      30.27R
LARAMIE        FAIR      43  39  86 SE7       30.26R
CHEYENNE       FAIR      53  41  63 W12       30.18S
TORRINGTON     FAIR      47  43  86 CALM      30.07S
PINE BLUFFS    FAIR      46  43  87 SW3       30.14S

$$




USA.gov is the U.S. government's official web portal to all federal, state and local government web resources and services.